User: anonymous   Login
Location: Csohesd
(46.2500°N, 22.6167°E)
Time: 06:24:46
(UTC+00:00)
Language:

Cosmos 839 Rocket - Orbit

View from above orbital plane
View from above orbital plane
View from above satellite
View from above satellite

Ground track
Ground track

The orbit data is extracted from the following two-line orbital elements,

1 09013U 76067B   22023.27484854 -.00000041  00000-0  46430-4 0  9997
2 09013  65.8678 342.3557 0708517 135.1725 230.8797 12.35346068 53941
Epoch (UTC): 23 January 2022 06:35:46
Eccentricity: 0.0708517
inclination: 65.8678°
perigee height: 966 km
apogee height: 2086 km
right ascension of ascending node: 342.3557°
argument of perigee: 135.1725°
revolutions per day: 12.35346068
mean anomaly at epoch: 230.8797°
orbit number at epoch: 5394

The dashed part of the orbit path shows where the satellite is in the earth's shadow,  

DLR